DL9BGG-13 Weather Reports


time (UTC)temp
C
wind
direction
speed
KPH
gust
KPH
rain 1hr
cm
rain 24hr
cm
rain mn
cm
humidity
%
barometer
mb
20260507060226 12 45 9.7 0.0 0.00 0.00 0.00 75 1059.9
20260507060113 13 90 0.0 0.0 0.00 0.00 0.00 75 1059.9
20260507060008 13 45 9.7 0.0 0.00 0.00 0.00 74 1059.9
20260507055848 13 90 12.9 0.0 0.00 0.00 0.00 75 1059.9
20260507055742 13 67 17.7 0.0 0.00 0.00 0.00 75 1059.8
20260507055637 13 90 8.0 0.0 0.00 0.00 0.00 76 1059.8
20260507055517 12 45 4.8 0.0 0.00 0.00 0.00 76 1059.8
20260507055411 12 45 8.0 0.0 0.00 0.00 0.00 75 1059.8
20260507055306 12 45 19.3 0.0 0.00 0.00 0.00 76 1059.8
20260507055146 12 90 9.7 0.0 0.00 0.00 0.00 75 1059.8
20260507055040 12 45 14.5 0.0 0.00 0.00 0.00 75 1059.8
20260507054926 13 67 9.7 0.0 0.00 0.00 0.00 76 1059.8
20260507054813 13 45 9.7 0.0 0.00 0.00 0.00 76 1059.7
20260507054654 12 22 12.9 0.0 0.00 0.00 0.00 76 1059.7
20260507054541 12 45 6.4 0.0 0.00 0.00 0.00 77 1059.7
20260507054433 13 45 8.0 0.0 0.00 0.00 0.00 77 1059.7
20260507054320 13 45 9.7 0.0 0.00 0.00 0.00 77 1059.7
20260507054200 12 45 8.0 0.0 0.00 0.00 0.00 78 1059.6
20260507054056 12 45 0.0 0.0 0.00 0.00 0.00 79 1059.6
20260507053950 12 45 0.0 0.0 0.00 0.00 0.00 79 1059.7
20260507053835 12 22 6.4 0.0 0.00 0.00 0.00 79 1059.6
20260507053722 12 22 0.0 0.0 0.00 0.00 0.00 79 1059.7
20260507053600 12 67 12.9 0.0 0.00 0.00 0.00 80 1059.6
20260507053442 12 22 12.9 0.0 0.00 0.00 0.00 80 1059.6
20260507053335 12 22 9.7 0.0 0.00 0.00 0.00 80 1059.6
20260507053230 12 45 9.7 0.0 0.00 0.00 0.00 81 1059.6
20260507053124 12 45 8.0 0.0 0.00 0.00 0.00 81 1059.6
20260507053003 12 45 3.2 0.0 0.00 0.00 0.00 82 1059.6
20260507052842 12 22 6.4 0.0 0.00 0.00 0.00 82 1059.6
20260507052736 12 22 8.0 0.0 0.00 0.00 0.00 83 1059.6
20260507052631 12 45 14.5 0.0 0.00 0.00 0.00 84 1059.6
20260507052524 12 0 12.9 0.0 0.00 0.00 0.00 85 1059.6
20260507052419 12 22 4.8 0.0 0.00 0.00 0.00 85 1059.5
20260507052306 12 45 0.0 0.0 0.00 0.00 0.00 86 1059.5
20260507052144 11 45 3.2 0.0 0.00 0.00 0.00 86 1059.5
20260507052031 11 0 8.0 0.0 0.00 0.00 0.00 86 1059.5
20260507051912 11 45 9.7 0.0 0.00 0.00 0.00 86 1059.5
20260507051807 11 22 0.0 0.0 0.00 0.00 0.00 87 1059.5
20260507051701 11 45 4.8 0.0 0.00 0.00 0.00 87 1059.5
20260507051434 10 45 3.2 0.0 0.00 0.00 0.00 88 1059.4
20260507050945 10 45 0.0 0.0 0.00 0.00 0.00 88 1059.3
20260507050823 10 22 6.4 0.0 0.00 0.00 0.00 89 1059.3
20260507050701 10 45 0.0 0.0 0.00 0.00 0.00 89 1059.3
20260507050547 10 45 6.4 0.0 0.00 0.00 0.00 89 1059.3
20260507050440 10 22 0.0 0.0 0.00 0.00 0.00 89 1059.3
20260507050329 9 45 0.0 0.0 0.00 0.00 0.00 89 1059.3
20260507050221 9 45 0.0 0.0 0.00 0.00 0.00 89 1059.2
20260507050107 9 22 9.7 0.0 0.00 0.00 0.00 90 1059.3
20260507045952 9 22 3.2 0.0 0.00 0.00 0.00 89 1059.3
20260507045838 8 45 0.0 0.0 0.00 0.00 0.00 89 1059.3
20260507045733 8 45 0.0 0.0 0.00 0.00 0.00 89 1059.3
20260507045627 8 45 0.0 0.0 0.00 0.00 0.00 89 1059.3
20260507045511 8 45 0.0 0.0 0.00 0.00 0.00 89 1059.3
20260507045349 8 45 0.0 0.0 0.00 0.00 0.00 89 1059.2
20260507045235 8 45 0.0 0.0 0.00 0.00 0.00 89 1059.3
20260507045114 9 45 0.0 0.0 0.00 0.00 0.00 89 1059.3
20260507045009 9 45 0.0 0.0 0.00 0.00 0.00 90 1059.3
20260507044855 9 45 0.0 0.0 0.00 0.00 0.00 89 1059.3
20260507044749 9 45 0.0 0.0 0.00 0.00 0.00 89 1059.3
20260507044642 10 45 0.0 0.0 0.00 0.00 0.00 89 1059.2
20260507044536 10 45 0.0 0.0 0.00 0.00 0.00 90 1059.2
20260507044429 10 45 0.0 0.0 0.00 0.00 0.00 90 1059.2
20260507044314 10 45 4.8 0.0 0.00 0.00 0.00 90 1059.2
20260507044200 10 45 0.0 0.0 0.00 0.00 0.00 90 1059.2
20260507044047 9 45 0.0 0.0 0.00 0.00 0.00 90 1059.2
20260507043934 9 45 0.0 0.0 0.00 0.00 0.00 90 1059.2
20260507043822 9 45 0.0 0.0 0.00 0.00 0.00 90 1059.1
20260507043716 9 45 0.0 0.0 0.00 0.00 0.00 90 1059.2
20260507043611 9 45 0.0 0.0 0.00 0.00 0.00 90 1059.1
20260507043450 9 45 0.0 0.0 0.00 0.00 0.00 90 1059.2
20260507043336 9 45 0.0 0.0 0.00 0.00 0.00 91 1059.1
20260507043223 9 45 0.0 0.0 0.00 0.00 0.00 91 1059.1
20260507043110 9 45 4.8 0.0 0.00 0.00 0.00 91 1059.1
20260507042952 9 45 0.0 0.0 0.00 0.00 0.00 91 1059.0
20260507042845 9 22 0.0 0.0 0.00 0.00 0.00 91 1059.1
20260507042741 9 22 8.0 0.0 0.00 0.00 0.00 91 1059.0
20260507042634 8 45 6.4 0.0 0.00 0.00 0.00 92 1059.0
20260507042520 8 45 3.2 0.0 0.00 0.00 0.00 92 1059.0
20260507042354 8 45 0.0 0.0 0.00 0.00 0.00 92 1059.1
20260507042247 8 45 0.0 0.0 0.00 0.00 0.00 92 1059.0
20260507042134 8 45 0.0 0.0 0.00 0.00 0.00 92 1059.1
20260507042004 8 45 0.0 0.0 0.00 0.00 0.00 92 1059.0
20260507041851 8 22 0.0 0.0 0.00 0.00 0.00 91 1059.0
20260507041739 8 45 0.0 0.0 0.00 0.00 0.00 91 1058.9
20260507041633 8 22 8.0 0.0 0.00 0.00 0.00 91 1059.0
20260507041528 8 22 0.0 0.0 0.00 0.00 0.00 92 1059.0
20260507041417 8 22 9.7 0.0 0.00 0.00 0.00 91 1059.0
20260507041309 8 22 4.8 0.0 0.00 0.00 0.00 91 1059.0
20260507041149 8 0 6.4 0.0 0.00 0.00 0.00 91 1059.0
20260507041044 8 22 0.0 0.0 0.00 0.00 0.00 91 1058.9
20260507040922 8 22 6.4 0.0 0.00 0.00 0.00 91 1058.9
20260507040809 8 22 9.7 0.0 0.00 0.00 0.00 91 1058.9
20260507040656 8 45 0.0 0.0 0.00 0.00 0.00 91 1058.9
20260507040535 8 45 0.0 0.0 0.00 0.00 0.00 91 1058.8
20260507040422 8 22 1.6 0.0 0.00 0.00 0.00 91 1058.9
20260507040319 8 0 8.0 0.0 0.00 0.00 0.00 91 1058.8
20260507040212 8 22 6.4 0.0 0.00 0.00 0.00 91 1058.8
20260507040111 8 0 0.0 0.0 0.00 0.00 0.00 91 1058.8
20260507035843 8 0 6.4 0.0 0.00 0.00 0.00 91 1058.8
20260507035737 8 22 0.0 0.0 0.00 0.00 0.00 91 1058.9
20260507035525 8 45 9.7 0.0 0.00 0.00 0.00 91 1058.8
20260507035404 8 22 0.0 0.0 0.00 0.00 0.00 91 1058.8
20260507035251 8 22 9.7 0.0 0.00 0.00 0.00 91 1058.8
20260507035129 8 22 3.2 0.0 0.00 0.00 0.00 91 1058.7
20260507035017 8 22 0.0 0.0 0.00 0.00 0.00 91 1058.7
20260507034855 8 22 4.8 0.0 0.00 0.00 0.00 91 1058.8
20260507034734 8 22 8.0 0.0 0.00 0.00 0.00 91 1058.7
20260507034621 8 22 9.7 0.0 0.00 0.00 0.00 91 1058.8
20260507034516 8 22 0.0 0.0 0.00 0.00 0.00 91 1058.8
20260507034405 8 22 0.0 0.0 0.00 0.00 0.00 91 1058.7
20260507034300 7 22 3.2 0.0 0.00 0.00 0.00 91 1058.7
20260507034152 7 0 0.0 0.0 0.00 0.00 0.00 91 1058.7
20260507034032 7 0 8.0 0.0 0.00 0.00 0.00 91 1058.7
20260507033918 7 22 0.0 0.0 0.00 0.00 0.00 91 1058.7
20260507033759 7 22 0.0 0.0 0.00 0.00 0.00 91 1058.7
20260507033644 8 45 9.7 0.0 0.00 0.00 0.00 91 1058.7
20260507033531 7 0 4.8 0.0 0.00 0.00 0.00 91 1058.7
20260507033418 8 22 9.7 0.0 0.00 0.00 0.00 91 1058.7
20260507033304 8 22 9.7 0.0 0.00 0.00 0.00 91 1058.7
20260507033144 8 0 0.0 0.0 0.00 0.00 0.00 90 1058.7
20260507033030 8 45 4.8 0.0 0.00 0.00 0.00 91 1058.6
20260507032909 8 0 8.0 0.0 0.00 0.00 0.00 90 1058.5
20260507032756 8 22 6.4 0.0 0.00 0.00 0.00 90 1058.6
20260507032652 8 22 14.5 0.0 0.00 0.00 0.00 90 1058.5
20260507032546 8 22 0.0 0.0 0.00 0.00 0.00 90 1058.6
20260507032432 8 0 0.0 0.0 0.00 0.00 0.00 90 1058.7
20260507032312 8 22 11.3 0.0 0.00 0.00 0.00 90 1058.7
20260507032159 8 22 4.8 0.0 0.00 0.00 0.00 90 1058.7
20260507032054 8 0 6.4 0.0 0.00 0.00 0.00 90 1058.7
20260507031949 8 0 9.7 0.0 0.00 0.00 0.00 90 1058.7
20260507031844 8 22 6.4 0.0 0.00 0.00 0.00 90 1058.6
20260507031739 8 22 9.7 0.0 0.00 0.00 0.00 90 1058.5
20260507031633 8 22 11.3 0.0 0.00 0.00 0.00 90 1058.6
20260507031513 8 22 9.7 0.0 0.00 0.00 0.00 90 1058.5
20260507031409 8 45 0.0 0.0 0.00 0.00 0.00 90 1058.5
20260507031302 8 0 8.0 0.0 0.00 0.00 0.00 90 1058.5
20260507031141 8 22 9.7 0.0 0.00 0.00 0.00 90 1058.6
20260507031036 8 22 1.6 0.0 0.00 0.00 0.00 90 1058.6
20260507030924 8 22 3.2 0.0 0.00 0.00 0.00 90 1058.7
20260507030804 8 0 8.0 0.0 0.00 0.00 0.00 90 1058.6
20260507030657 8 22 9.7 0.0 0.00 0.00 0.00 90 1058.6
20260507030552 8 22 4.8 0.0 0.00 0.00 0.00 90 1058.6
20260507030439 8 45 0.0 0.0 0.00 0.00 0.00 90 1058.5
20260507030326 8 22 8.0 0.0 0.00 0.00 0.00 90 1058.5
20260507030213 8 45 9.7 0.0 0.00 0.00 0.00 90 1058.5
20260507030100 8 0 11.3 0.0 0.00 0.00 0.00 90 1058.5
20260507025954 8 0 9.7 0.0 0.00 0.00 0.00 90 1058.4
20260507025841 8 0 11.3 0.0 0.00 0.00 0.00 89 1058.5
20260507025735 8 0 0.0 0.0 0.00 0.00 0.00 89 1058.4
20260507025629 8 0 8.0 0.0 0.00 0.00 0.00 89 1058.4
20260507025523 8 22 14.5 0.0 0.00 0.00 0.00 89 1058.5
20260507025417 8 22 9.7 0.0 0.00 0.00 0.00 89 1058.4
20260507025312 8 22 6.4 0.0 0.00 0.00 0.00 89 1058.4
20260507025204 8 0 9.7 0.0 0.00 0.00 0.00 89 1058.4
20260507025050 8 22 0.0 0.0 0.00 0.00 0.00 89 1058.3
20260507024938 8 22 6.4 0.0 0.00 0.00 0.00 89 1058.4
20260507024822 8 337 6.4 0.0 0.00 0.00 0.00 89 1058.3
20260507024707 8 45 4.8 0.0 0.00 0.00 0.00 89 1058.3
20260507024547 8 0 6.4 0.0 0.00 0.00 0.00 89 1058.3
20260507024439 8 0 8.0 0.0 0.00 0.00 0.00 89 1058.3
20260507024325 8 22 9.7 0.0 0.00 0.00 0.00 89 1058.4
20260507024210 8 45 3.2 0.0 0.00 0.00 0.00 89 1058.3
20260507024050 8 0 12.9 0.0 0.00 0.00 0.00 89 1058.3
20260507023946 8 0 0.0 0.0 0.00 0.00 0.00 89 1058.4
20260507023839 8 0 0.0 0.0 0.00 0.00 0.00 89 1058.4
20260507023734 8 22 0.0 0.0 0.00 0.00 0.00 89 1058.4
20260507023628 8 22 11.3 0.0 0.00 0.00 0.00 89 1058.3
20260507023508 8 22 9.7 0.0 0.00 0.00 0.00 89 1058.4
20260507023402 8 22 9.7 0.0 0.00 0.00 0.00 89 1058.4
20260507023257 8 22 0.0 0.0 0.00 0.00 0.00 89 1058.4
20260507023136 8 45 9.7 0.0 0.00 0.00 0.00 89 1058.3
20260507023030 8 22 9.7 0.0 0.00 0.00 0.00 89 1058.4
20260507022918 8 0 6.4 0.0 0.00 0.00 0.00 89 1058.3
20260507022813 8 45 6.4 0.0 0.00 0.00 0.00 89 1058.3
20260507022700 8 67 11.3 0.0 0.00 0.00 0.00 89 1058.3
20260507022555 8 45 9.7 0.0 0.00 0.00 0.00 88 1058.3
20260507022450 8 45 16.1 0.0 0.00 0.00 0.00 88 1058.3
20260507022337 8 22 8.0 0.0 0.00 0.00 0.00 88 1058.3
20260507022233 8 22 9.7 0.0 0.00 0.00 0.00 88 1058.3
20260507022127 8 22 3.2 0.0 0.00 0.00 0.00 88 1058.2
20260507022005 8 0 3.2 0.0 0.00 0.00 0.00 88 1058.3
20260507021853 8 0 6.4 0.0 0.00 0.00 0.00 88 1058.2
20260507021739 8 0 4.8 0.0 0.00 0.00 0.00 88 1058.3
20260507021625 8 45 9.7 0.0 0.00 0.00 0.00 88 1058.2
20260507021513 8 0 9.7 0.0 0.00 0.00 0.00 88 1058.1
20260507021359 8 0 9.7 0.0 0.00 0.00 0.00 88 1058.2
20260507021246 8 22 6.4 0.0 0.00 0.00 0.00 88 1058.2
20260507021135 8 22 9.7 0.0 0.00 0.00 0.00 88 1058.1
20260507021028 8 22 8.0 0.0 0.00 0.00 0.00 88 1058.1
20260507020906 8 0 4.8 0.0 0.00 0.00 0.00 88 1058.2
20260507020746 8 0 6.4 0.0 0.00 0.00 0.00 88 1058.2
20260507020641 8 22 11.3 0.0 0.00 0.00 0.00 88 1058.1
20260507020528 8 0 9.7 0.0 0.00 0.00 0.00 88 1058.2
20260507020359 8 45 19.3 0.0 0.00 0.00 0.00 88 1058.2
20260507020245 8 22 6.4 0.0 0.00 0.00 0.00 88 1058.2
20260507020132 8 0 9.7 0.0 0.00 0.00 0.00 88 1058.3
20260507020010 8 22 0.0 0.0 0.00 0.00 0.00 88 1058.2
20260507015850 8 0 6.4 0.0 0.00 0.00 0.00 88 1058.2
20260507015745 8 22 6.4 0.0 0.00 0.00 0.00 87 1058.3
20260507015639 8 0 9.7 0.0 0.00 0.00 0.00 87 1058.2
20260507015518 8 0 9.7 0.0 0.00 0.00 0.00 87 1058.2
20260507015406 8 22 8.0 0.0 0.00 0.00 0.00 87 1058.1
20260507015301 8 337 9.7 0.0 0.00 0.00 0.00 87 1058.1
20260507015155 8 22 0.0 0.0 0.00 0.00 0.00 87 1058.0
20260507015042 8 45 6.4 0.0 0.00 0.00 0.00 87 1058.1
20260507014921 8 22 11.3 0.0 0.00 0.00 0.00 87 1058.1
20260507014800 8 22 9.7 0.0 0.00 0.00 0.00 87 1058.0
20260507014655 8 45 6.4 0.0 0.00 0.00 0.00 87 1058.1
20260507014549 8 22 4.8 0.0 0.00 0.00 0.00 87 1058.1
20260507014428 8 22 12.9 0.0 0.00 0.00 0.00 87 1058.0
20260507014315 8 22 8.0 0.0 0.00 0.00 0.00 87 1057.9
20260507014203 8 0 16.1 0.0 0.00 0.00 0.00 87 1058.1
20260507014057 8 22 6.4 0.0 0.00 0.00 0.00 86 1058.1
20260507013946 8 0 11.3 0.0 0.00 0.00 0.00 86 1058.0
20260507013839 8 45 14.5 0.0 0.00 0.00 0.00 86 1058.1
20260507013728 8 0 4.8 0.0 0.00 0.00 0.00 86 1058.1
20260507013620 8 22 0.0 0.0 0.00 0.00 0.00 86 1058.1
20260507013459 8 22 11.3 0.0 0.00 0.00 0.00 86 1058.1
20260507013346 8 22 4.8 0.0 0.00 0.00 0.00 86 1058.0
20260507013226 8 45 3.2 0.0 0.00 0.00 0.00 86 1058.0
20260507013120 8 0 12.9 0.0 0.00 0.00 0.00 86 1057.9
20260507013001 8 22 0.0 0.0 0.00 0.00 0.00 86 1058.0
20260507012853 8 0 14.5 0.0 0.00 0.00 0.00 86 1058.0
20260507012733 8 22 6.4 0.0 0.00 0.00 0.00 86 1058.0
20260507012620 8 0 8.0 0.0 0.00 0.00 0.00 86 1058.1
20260507012508 8 0 8.0 0.0 0.00 0.00 0.00 86 1058.0
20260507012353 8 0 9.7 0.0 0.00 0.00 0.00 86 1058.0
20260507012233 8 0 9.7 0.0 0.00 0.00 0.00 86 1058.0
20260507012128 8 22 11.3 0.0 0.00 0.00 0.00 86 1058.1
20260507012021 8 22 9.7 0.0 0.00 0.00 0.00 86 1058.0
20260507011853 8 0 4.8 0.0 0.00 0.00 0.00 86 1058.1
20260507011740 8 22 9.7 0.0 0.00 0.00 0.00 86 1058.0
20260507011634 8 45 8.0 0.0 0.00 0.00 0.00 86 1058.1
20260507011514 8 22 6.4 0.0 0.00 0.00 0.00 86 1058.0
20260507011400 8 22 6.4 0.0 0.00 0.00 0.00 86 1057.9
20260507011247 8 0 9.7 0.0 0.00 0.00 0.00 86 1058.0
20260507011143 8 0 3.2 0.0 0.00 0.00 0.00 86 1058.1
20260507011036 8 22 6.4 0.0 0.00 0.00 0.00 86 1057.9
20260507010917 8 0 6.4 0.0 0.00 0.00 0.00 86 1058.0
20260507010811 8 22 22.5 0.0 0.00 0.00 0.00 86 1058.0
20260507010650 8 45 8.0 0.0 0.00 0.00 0.00 86 1058.0
20260507010544 8 22 9.7 0.0 0.00 0.00 0.00 86 1058.0
20260507010423 8 45 0.0 0.0 0.00 0.00 0.00 86 1058.1
20260507010306 8 22 9.7 0.0 0.00 0.00 0.00 86 1057.9
20260507005922 8 0 6.4 0.0 0.00 0.00 0.00 85 1057.9
20260507005809 8 22 6.4 0.0 0.00 0.00 0.00 85 1057.9
20260507005650 8 45 9.7 0.0 0.00 0.00 0.00 85 1057.9
20260507005543 8 22 9.7 0.0 0.00 0.00 0.00 85 1057.9
20260507005430 8 22 8.0 0.0 0.00 0.00 0.00 85 1057.9
20260507005318 8 0 4.8 0.0 0.00 0.00 0.00 85 1057.9
20260507005204 8 22 9.7 0.0 0.00 0.00 0.00 85 1057.9
20260507005052 8 22 6.4 0.0 0.00 0.00 0.00 85 1057.9
20260507004946 8 337 4.8 0.0 0.00 0.00 0.00 85 1058.0
20260507004832 8 0 9.7 0.0 0.00 0.00 0.00 85 1057.9
20260507004719 8 0 9.7 0.0 0.00 0.00 0.00 85 1057.9
20260507004606 8 22 11.3 0.0 0.00 0.00 0.00 85 1057.9
20260507004453 8 22 8.0 0.0 0.00 0.00 0.00 85 1057.9
20260507004342 8 22 1.6 0.0 0.00 0.00 0.00 85 1057.9
20260507004235 8 22 3.2 0.0 0.00 0.00 0.00 85 1058.0
20260507004122 8 0 4.8 0.0 0.00 0.00 0.00 85 1057.9
20260507004008 8 22 4.8 0.0 0.00 0.00 0.00 85 1058.0
20260507003851 8 0 3.2 0.0 0.00 0.00 0.00 85 1058.0
20260507003743 8 45 8.0 0.0 0.00 0.00 0.00 85 1058.0
20260507003630 8 22 16.1 0.0 0.00 0.00 0.00 84 1058.0
20260507003525 8 22 8.0 0.0 0.00 0.00 0.00 85 1057.9
20260507003419 8 337 9.7 0.0 0.00 0.00 0.00 84 1057.9
20260507003250 8 0 9.7 0.0 0.00 0.00 0.00 84 1058.0
20260507003138 8 45 6.4 0.0 0.00 0.00 0.00 84 1057.9
20260507003032 8 22 9.7 0.0 0.00 0.00 0.00 84 1057.8
20260507002921 8 22 3.2 0.0 0.00 0.00 0.00 84 1057.9
20260507002757 8 0 6.4 0.0 0.00 0.00 0.00 84 1057.8
20260507002645 8 0 3.2 0.0 0.00 0.00 0.00 83 1057.7
20260507002539 8 337 11.3 0.0 0.00 0.00 0.00 83 1057.7
20260507002433 8 45 0.0 0.0 0.00 0.00 0.00 83 1057.8
20260507002327 8 22 14.5 0.0 0.00 0.00 0.00 83 1057.8
20260507002221 8 0 6.4 0.0 0.00 0.00 0.00 83 1057.7
20260507002116 8 0 12.9 0.0 0.00 0.00 0.00 83 1057.7
20260507002009 8 22 6.4 0.0 0.00 0.00 0.00 83 1057.8
20260507001903 8 45 16.1 0.0 0.00 0.00 0.00 83 1057.7
20260507001756 8 22 6.4 0.0 0.00 0.00 0.00 83 1057.7
20260507001635 8 22 0.0 0.0 0.00 0.00 0.00 83 1057.7
20260507001522 8 45 6.4 0.0 0.00 0.00 0.00 83 1057.7
20260507001414 8 22 8.0 0.0 0.00 0.00 0.00 83 1057.8
20260507001302 8 22 6.4 0.0 0.00 0.00 0.00 83 1057.6
20260507001154 8 0 9.7 0.0 0.00 0.00 0.00 83 1057.7
20260507001041 8 22 8.0 0.0 0.00 0.00 0.00 82 1057.7
20260507000921 8 45 4.8 0.0 0.00 0.00 0.00 82 1057.7
20260507000817 8 22 0.0 0.0 0.00 0.00 0.00 82 1057.7
20260507000711 8 22 4.8 0.0 0.00 0.00 0.00 82 1057.8
20260507000605 8 22 12.9 0.0 0.00 0.00 0.00 82 1057.7
20260507000452 8 22 0.0 0.0 0.00 0.00 0.00 82 1057.8
20260507000346 8 337 8.0 0.0 0.00 0.00 0.00 82 1057.7
20260507000240 8 45 9.7 0.0 0.00 0.00 0.00 82 1057.8
20260507000134 8 0 4.8 0.0 0.00 0.00 0.00 82 1057.8
20260507000028 8 0 9.7 0.0 0.00 0.00 0.00 82 1057.8
20260506235915 8 45 9.7 0.0 0.00 0.00 0.00 81 1057.8
20260506235801 8 45 9.7 0.0 0.00 0.00 0.00 81 1057.8
20260506235649 8 22 9.7 0.0 0.00 0.00 0.00 81 1057.9
20260506235536 8 0 8.0 0.0 0.00 0.00 0.00 81 1057.9
20260506235431 8 0 8.0 0.0 0.00 0.00 0.00 81 1058.0
20260506235325 8 22 22.5 0.0 0.00 0.00 0.00 81 1057.9
20260506235214 8 0 9.7 0.0 0.00 0.00 0.00 81 1058.0
20260506235107 8 0 6.4 0.0 0.00 0.00 0.00 81 1057.8
20260506234957 8 22 4.8 0.0 0.00 0.00 0.00 81 1057.8
20260506234632 8 22 3.2 0.0 0.00 0.00 0.00 81 1057.8
20260506234413 8 0 3.2 0.0 0.00 0.00 0.00 81 1057.8
20260506234300 8 22 8.0 0.0 0.00 0.00 0.00 81 1057.8
20260506234146 8 22 8.0 0.0 0.00 0.00 0.00 81 1057.9
20260506234036 8 0 4.8 0.0 0.00 0.00 0.00 81 1057.8
20260506233929 8 0 9.7 0.0 0.00 0.00 0.00 81 1057.8
20260506233824 8 0 9.7 0.0 0.00 0.00 0.00 81 1057.7
20260506233711 8 45 14.5 0.0 0.00 0.00 0.00 81 1057.8
20260506233606 8 22 4.8 0.0 0.00 0.00 0.00 81 1057.9
20260506233500 8 45 6.4 0.0 0.00 0.00 0.00 81 1057.8
20260506233341 8 0 9.7 0.0 0.00 0.00 0.00 81 1057.9
20260506233234 8 337 9.7 0.0 0.00 0.00 0.00 80 1057.7
20260506233113 8 22 4.8 0.0 0.00 0.00 0.00 80 1057.8
20260506233008 8 45 9.7 0.0 0.00 0.00 0.00 80 1057.8
20260506232854 8 22 0.0 0.0 0.00 0.00 0.00 80 1057.8
20260506232742 8 67 9.7 0.0 0.00 0.00 0.00 80 1057.8
20260506232631 8 0 3.2 0.0 0.00 0.00 0.00 80 1057.9
20260506232524 8 22 9.7 0.0 0.00 0.00 0.00 80 1057.7
20260506232411 8 0 12.9 0.0 0.00 0.00 0.00 80 1057.7
20260506232308 8 0 20.9 0.0 0.00 0.00 0.00 80 1057.9
20260506232201 8 0 9.7 0.0 0.00 0.00 0.00 80 1057.7
20260506232048 8 22 9.7 0.0 0.00 0.00 0.00 80 1057.7
20260506231928 8 22 4.8 0.0 0.00 0.00 0.00 80 1057.7
20260506231822 8 22 9.7 0.0 0.00 0.00 0.00 80 1057.7
20260506231716 8 0 14.5 0.0 0.00 0.00 0.00 80 1057.8
20260506231606 8 45 12.9 0.0 0.00 0.00 0.00 80 1057.7
20260506231458 8 22 9.7 0.0 0.00 0.00 0.00 80 1057.7
20260506231331 8 22 9.7 0.0 0.00 0.00 0.00 80 1057.7
20260506231224 8 22 8.0 0.0 0.00 0.00 0.00 80 1057.7
20260506231111 8 0 1.6 0.0 0.00 0.00 0.00 80 1057.7
20260506230959 8 337 4.8 0.0 0.00 0.00 0.00 80 1057.7
20260506230853 8 0 9.7 0.0 0.00 0.00 0.00 80 1057.7
20260506230732 8 22 9.7 0.0 0.00 0.00 0.00 80 1057.7
20260506230618 8 0 8.0 0.0 0.00 0.00 0.00 80 1057.7
20260506230459 8 22 17.7 0.0 0.00 0.00 0.00 80 1057.8
20260506230355 8 0 8.0 0.0 0.00 0.00 0.00 81 1057.7
20260506230247 8 0 0.0 0.0 0.00 0.00 0.00 81 1057.8
20260506230134 8 22 14.5 0.0 0.00 0.00 0.00 81 1057.8
20260506230031 8 22 3.2 0.0 0.00 0.00 0.00 81 1057.8
20260506225924 8 0 0.0 0.0 0.00 0.00 0.00 81 1057.8
20260506225810 8 45 8.0 0.0 0.00 0.00 0.00 81 1057.8
20260506225641 8 0 11.3 0.0 0.00 0.00 0.00 81 1057.8
20260506225519 8 0 17.7 0.0 0.00 0.00 0.00 81 1057.8
20260506225358 8 45 6.4 0.0 0.00 0.00 0.00 81 1057.8
20260506225250 8 22 9.7 0.0 0.00 0.00 0.00 81 1057.8
20260506225138 8 45 11.3 0.0 0.00 0.00 0.00 82 1057.8
20260506225024 8 45 9.7 0.0 0.00 0.00 0.00 82 1057.8
20260506224902 8 0 6.4 0.0 0.00 0.00 0.00 82 1057.8
20260506224749 8 337 12.9 0.0 0.00 0.00 0.00 82 1057.9
20260506224643 8 0 9.7 0.0 0.00 0.00 0.00 82 1057.8
20260506224524 8 22 0.0 0.0 0.00 0.00 0.00 82 1057.8
20260506224409 8 22 6.4 0.0 0.00 0.00 0.00 82 1057.8
20260506224255 8 45 12.9 0.0 0.00 0.00 0.00 82 1057.8
20260506224142 8 45 4.8 0.0 0.00 0.00 0.00 82 1057.8
20260506224028 8 0 8.0 0.0 0.00 0.00 0.00 82 1057.8
20260506223859 8 45 14.5 0.0 0.00 0.00 0.00 82 1057.8
20260506223738 8 22 11.3 0.0 0.00 0.00 0.00 82 1057.7
20260506223625 8 0 6.4 0.0 0.00 0.00 0.00 82 1057.7
20260506223521 8 22 8.0 0.0 0.00 0.00 0.00 82 1057.7
20260506223406 8 22 6.4 0.0 0.00 0.00 0.00 82 1057.7
20260506223248 8 0 8.0 0.0 0.00 0.00 0.00 82 1057.7
20260506223143 8 22 9.7 0.0 0.00 0.00 0.00 82 1057.7
20260506223035 8 22 4.8 0.0 0.00 0.00 0.00 82 1057.7
20260506222914 8 0 9.7 0.0 0.00 0.00 0.00 82 1057.7
20260506222753 8 45 4.8 0.0 0.00 0.00 0.00 82 1057.7
20260506222639 8 45 6.4 0.0 0.00 0.00 0.00 82 1057.7
20260506222521 8 22 8.0 0.0 0.00 0.00 0.00 82 1057.7
20260506222416 8 22 6.4 0.0 0.00 0.00 0.00 82 1057.7
20260506222306 8 0 8.0 0.0 0.00 0.00 0.00 82 1057.7
20260506222154 8 0 12.9 0.0 0.00 0.00 0.00 82 1057.7
20260506222039 8 45 11.3 0.0 0.00 0.00 0.00 82 1057.7
20260506221919 8 45 11.3 0.0 0.00 0.00 0.00 83 1057.7
20260506221814 8 22 9.7 0.0 0.00 0.00 0.00 83 1057.7
20260506221657 7 45 3.2 0.0 0.00 0.00 0.00 83 1057.7
20260506221545 7 22 9.7 0.0 0.00 0.00 0.00 83 1057.6
20260506221438 7 22 11.3 0.0 0.00 0.00 0.00 83 1057.7
20260506221318 7 0 6.4 0.0 0.00 0.00 0.00 83 1057.7
20260506221204 7 22 8.0 0.0 0.00 0.00 0.00 83 1057.6
20260506221051 7 22 11.3 0.0 0.00 0.00 0.00 83 1057.7
20260506220922 7 22 6.4 0.0 0.00 0.00 0.00 83 1057.6
20260506220809 7 45 4.8 0.0 0.00 0.00 0.00 83 1057.6
20260506220647 7 22 9.7 0.0 0.00 0.00 0.00 82 1057.6
20260506220521 7 45 12.9 0.0 0.00 0.00 0.00 82 1057.7
20260506220413 7 22 6.4 0.0 0.00 0.00 0.00 82 1057.7
20260506220254 7 67 8.0 0.0 0.00 0.00 0.00 82 1057.7
20260506220147 7 45 11.3 0.0 0.00 0.00 0.00 82 1057.7
20260506220033 7 90 9.7 0.0 0.00 0.00 0.00 82 1057.7
20260506215913 7 45 8.0 0.0 0.00 0.00 0.00 82 1057.7
20260506215759 7 22 6.4 0.0 0.00 0.00 0.00 81 1057.7
20260506215647 7 22 8.0 0.0 0.00 0.00 0.00 81 1057.6
20260506215541 7 0 12.9 0.0 0.00 0.00 0.00 81 1057.7
20260506215420 7 22 6.4 0.0 0.00 0.00 0.00 81 1057.7
20260506215259 7 22 6.4 0.0 0.00 0.00 0.00 81 1057.7
20260506215154 7 45 11.3 0.0 0.00 0.00 0.00 82 1057.6
20260506215041 7 0 8.0 0.0 0.00 0.00 0.00 81 1057.7
20260506214919 7 0 0.0 0.0 0.00 0.00 0.00 81 1057.6
20260506214805 7 45 4.8 0.0 0.00 0.00 0.00 81 1057.6
20260506214645 7 22 4.8 0.0 0.00 0.00 0.00 81 1057.7
20260506214534 7 22 9.7 0.0 0.00 0.00 0.00 81 1057.6
20260506214427 7 22 4.8 0.0 0.00 0.00 0.00 81 1057.6
20260506214257 7 22 9.7 0.0 0.00 0.00 0.00 81 1057.6
20260506214136 7 45 3.2 0.0 0.00 0.00 0.00 81 1057.6
20260506214007 7 90 9.7 0.0 0.00 0.00 0.00 81 1057.6
20260506213854 7 22 12.9 0.0 0.00 0.00 0.00 81 1057.6
20260506213740 7 45 8.0 0.0 0.00 0.00 0.00 81 1057.6
20260506213619 7 45 4.8 0.0 0.00 0.00 0.00 82 1057.6
20260506213458 7 45 9.7 0.0 0.00 0.00 0.00 81 1057.6
20260506213340 7 22 6.4 0.0 0.00 0.00 0.00 82 1057.6
20260506213234 7 0 14.5 0.0 0.00 0.00 0.00 82 1057.5
20260506213129 7 22 0.0 0.0 0.00 0.00 0.00 82 1057.6
20260506213015 7 45 8.0 0.0 0.00 0.00 0.00 81 1057.6
20260506212909 7 22 8.0 0.0 0.00 0.00 0.00 81 1057.7
20260506212804 7 22 0.0 0.0 0.00 0.00 0.00 81 1057.6
20260506212651 8 22 6.4 0.0 0.00 0.00 0.00 81 1057.6
20260506212531 8 45 4.8 0.0 0.00 0.00 0.00 81 1057.5
20260506212427 8 22 9.7 0.0 0.00 0.00 0.00 81 1057.6
20260506212319 8 22 8.0 0.0 0.00 0.00 0.00 82 1057.6
20260506212207 8 0 8.0 0.0 0.00 0.00 0.00 82 1057.5
20260506212046 8 0 6.4 0.0 0.00 0.00 0.00 81 1057.5
20260506211932 8 0 9.7 0.0 0.00 0.00 0.00 81 1057.4
20260506211819 8 0 0.0 0.0 0.00 0.00 0.00 81 1057.4
20260506211715 8 22 8.0 0.0 0.00 0.00 0.00 81 1057.4
20260506211609 8 67 6.4 0.0 0.00 0.00 0.00 81 1057.4
20260506211447 8 45 3.2 0.0 0.00 0.00 0.00 81 1057.4
20260506211327 8 45 6.4 0.0 0.00 0.00 0.00 81 1057.4
20260506211212 8 0 9.7 0.0 0.00 0.00 0.00 81 1057.4
20260506211052 8 22 9.7 0.0 0.00 0.00 0.00 81 1057.4
20260506210939 8 0 11.3 0.0 0.00 0.00 0.00 81 1057.3
20260506210817 8 337 9.7 0.0 0.00 0.00 0.00 81 1057.3
20260506210656 8 22 3.2 0.0 0.00 0.00 0.00 81 1057.4
20260506210535 8 337 11.3 0.0 0.00 0.00 0.00 81 1057.4
20260506210413 8 0 6.4 0.0 0.00 0.00 0.00 80 1057.4
20260506210252 8 22 9.7 0.0 0.00 0.00 0.00 80 1057.4
20260506210131 8 22 11.3 0.0 0.00 0.00 0.00 80 1057.4
20260506210002 8 22 3.2 0.0 0.00 0.00 0.00 80 1057.3
20260506205851 8 22 8.0 0.0 0.00 0.00 0.00 80 1057.4
20260506205745 8 22 9.7 0.0 0.00 0.00 0.00 80 1057.3
20260506205641 8 22 8.0 0.0 0.00 0.00 0.00 80 1057.3
20260506205534 8 22 6.4 0.0 0.00 0.00 0.00 80 1057.3
20260506205423 8 0 9.7 0.0 0.00 0.00 0.00 80 1057.3
20260506205318 8 45 9.7 0.0 0.00 0.00 0.00 80 1057.3
20260506205155 8 22 9.7 0.0 0.00 0.00 0.00 80 1057.3
20260506205041 8 45 14.5 0.0 0.00 0.00 0.00 80 1057.3
20260506204921 8 22 6.4 0.0 0.00 0.00 0.00 80 1057.3
20260506204817 8 22 12.9 0.0 0.00 0.00 0.00 80 1057.3
20260506204706 8 22 12.9 0.0 0.00 0.00 0.00 80 1057.4
20260506204550 8 0 6.4 0.0 0.00 0.00 0.00 80 1057.3
20260506204444 8 0 14.5 0.0 0.00 0.00 0.00 80 1057.3
20260506204339 8 0 9.7 0.0 0.00 0.00 0.00 80 1057.3
20260506204218 8 22 9.7 0.0 0.00 0.00 0.00 80 1057.3
20260506204057 8 0 8.0 0.0 0.00 0.00 0.00 80 1057.3
20260506203952 8 22 14.5 0.0 0.00 0.00 0.00 80 1057.4
20260506203831 8 0 9.7 0.0 0.00 0.00 0.00 80 1057.4
20260506203719 8 22 16.1 0.0 0.00 0.00 0.00 80 1057.4
20260506203612 8 0 8.0 0.0 0.00 0.00 0.00 80 1057.4
20260506203459 8 45 6.4 0.0 0.00 0.00 0.00 80 1057.4
20260506203354 8 0 12.9 0.0 0.00 0.00 0.00 80 1057.4
20260506203232 8 0 11.3 0.0 0.00 0.00 0.00 80 1057.4
20260506203113 8 22 19.3 0.0 0.00 0.00 0.00 80 1057.4
20260506202942 8 22 17.7 0.0 0.00 0.00 0.00 81 1057.3
20260506202829 8 0 6.4 0.0 0.00 0.00 0.00 81 1057.3
20260506202708 8 0 12.9 0.0 0.00 0.00 0.00 81 1057.4
20260506202555 8 45 22.5 0.0 0.00 0.00 0.00 80 1057.3
20260506202441 8 0 14.5 0.0 0.00 0.00 0.00 80 1057.2
20260506202323 8 22 17.7 0.0 0.00 0.00 0.00 80 1057.3
20260506202215 8 22 3.2 0.0 0.00 0.00 0.00 80 1057.3
20260506202054 8 0 14.5 0.0 0.00 0.00 0.00 80 1057.2
20260506201932 8 337 16.1 0.0 0.00 0.00 0.00 81 1057.2
20260506201811 8 22 4.8 0.0 0.00 0.00 0.00 81 1057.2
20260506201650 8 45 11.3 0.0 0.00 0.00 0.00 81 1057.3
20260506201529 8 0 11.3 0.0 0.00 0.00 0.00 81 1057.3
20260506201424 8 45 6.4 0.0 0.00 0.00 0.00 81 1057.3
20260506201310 8 45 4.8 0.0 0.00 0.00 0.00 81 1057.3
20260506201151 8 0 6.4 0.0 0.00 0.00 0.00 81 1057.3
20260506201044 8 0 4.8 0.0 0.00 0.00 0.00 80 1057.3
20260506200923 8 22 11.3 0.0 0.00 0.00 0.00 80 1057.3
20260506200811 8 22 12.9 0.0 0.00 0.00 0.00 81 1057.3
20260506200658 8 22 6.4 0.0 0.00 0.00 0.00 81 1057.3
20260506200536 8 22 22.5 0.0 0.00 0.00 0.00 81 1057.3
20260506200415 8 22 9.7 0.0 0.00 0.00 0.00 81 1057.3
20260506200311 8 45 12.9 0.0 0.00 0.00 0.00 81 1057.2
20260506200205 8 22 6.4 0.0 0.00 0.00 0.00 81 1057.2
20260506200052 8 22 16.1 0.0 0.00 0.00 0.00 81 1057.2
20260506195941 8 337 11.3 0.0 0.00 0.00 0.00 81 1057.2
20260506195833 8 22 9.7 0.0 0.00 0.00 0.00 82 1057.2
20260506195720 8 315 11.3 0.0 0.00 0.00 0.00 82 1057.3
20260506195558 8 0 0.0 0.0 0.00 0.00 0.00 82 1057.2
20260506195429 8 22 9.7 0.0 0.00 0.00 0.00 82 1057.3
20260506195316 8 22 8.0 0.0 0.00 0.00 0.00 82 1057.2
20260506195147 8 22 11.3 0.0 0.00 0.00 0.00 82 1057.2
20260506195034 8 67 8.0 0.0 0.00 0.00 0.00 82 1057.2
20260506194920 8 22 19.3 0.0 0.00 0.00 0.00 82 1057.2
20260506194802 8 22 25.7 0.0 0.00 0.00 0.00 82 1057.2
20260506194654 8 0 8.0 0.0 0.00 0.00 0.00 82 1057.2
20260506194541 8 0 11.3 0.0 0.00 0.00 0.00 83 1057.2
20260506194412 8 22 19.3 0.0 0.00 0.00 0.00 83 1057.1
20260506194258 8 0 9.7 0.0 0.00 0.00 0.00 83 1057.2
20260506194130 8 67 19.3 0.0 0.00 0.00 0.00 83 1057.2
20260506194025 8 45 16.1 0.0 0.00 0.00 0.00 83 1057.2
20260506193911 8 0 17.7 0.0 0.00 0.00 0.00 83 1057.2
20260506193744 8 22 9.7 0.0 0.00 0.00 0.00 83 1057.1
20260506193638 8 45 14.5 0.0 0.00 0.00 0.00 83 1057.2
20260506193534 8 45 11.3 0.0 0.00 0.00 0.00 83 1057.1
20260506193427 8 0 12.9 0.0 0.00 0.00 0.00 82 1057.2
20260506193313 8 45 11.3 0.0 0.00 0.00 0.00 82 1057.1
20260506193152 8 0 8.0 0.0 0.00 0.00 0.00 82 1057.1
20260506193031 8 22 4.8 0.0 0.00 0.00 0.00 83 1057.1
20260506192926 8 22 17.7 0.0 0.00 0.00 0.00 83 1057.1
20260506192815 8 0 14.5 0.0 0.00 0.00 0.00 83 1057.1
20260506192708 8 45 25.7 0.0 0.00 0.00 0.00 83 1057.1
20260506192555 8 0 9.7 0.0 0.00 0.00 0.00 82 1057.1
20260506192449 8 337 14.5 0.0 0.00 0.00 0.00 82 1057.0
20260506192336 8 0 6.4 0.0 0.00 0.00 0.00 82 1057.0
20260506192222 8 0 9.7 0.0 0.00 0.00 0.00 81 1057.0
20260506192053 8 22 4.8 0.0 0.00 0.00 0.00 81 1057.0
20260506191934 8 45 11.3 0.0 0.00 0.00 0.00 81 1057.0
20260506191819 8 45 6.4 0.0 0.00 0.00 0.00 81 1057.0
20260506191706 8 22 24.1 0.0 0.00 0.00 0.00 81 1056.9
20260506191553 8 22 9.7 0.0 0.00 0.00 0.00 81 1056.9
20260506191433 8 90 11.3 0.0 0.00 0.00 0.00 81 1056.9
20260506191318 8 22 14.5 0.0 0.00 0.00 0.00 81 1056.9
20260506191206 8 45 9.7 0.0 0.00 0.00 0.00 80 1056.9
20260506191100 8 22 20.9 0.0 0.00 0.00 0.00 80 1056.9
20260506190946 9 0 16.1 0.0 0.00 0.00 0.00 81 1056.9
20260506190828 9 0 11.3 0.0 0.00 0.00 0.00 80 1056.9
20260506190724 9 22 9.7 0.0 0.00 0.00 0.00 80 1056.8
20260506190616 9 22 14.5 0.0 0.00 0.00 0.00 80 1056.9
20260506190504 9 0 9.7 0.0 0.00 0.00 0.00 80 1056.8
20260506190358 9 45 9.7 0.0 0.00 0.00 0.00 79 1056.9
20260506190239 9 22 9.7 0.0 0.00 0.00 0.00 79 1056.8
20260506190126 9 22 9.7 0.0 0.00 0.00 0.00 79 1056.7
20260506190019 9 22 19.3 0.0 0.00 0.00 0.00 79 1056.7
20260506185906 9 22 12.9 0.0 0.00 0.00 0.00 78 1056.7
20260506185752 9 0 9.7 0.0 0.00 0.00 0.00 78 1056.7
20260506185631 10 337 9.7 0.0 0.00 0.00 0.00 78 1056.6
20260506185509 10 45 9.7 0.0 0.00 0.00 0.00 78 1056.6
20260506185348 10 0 9.7 0.0 0.00 0.00 0.00 78 1056.5
20260506185234 10 22 12.9 0.0 0.00 0.00 0.00 78 1056.5
20260506185129 10 0 12.9 0.0 0.00 0.00 0.00 77 1056.5
20260506185023 10 337 6.4 0.0 0.00 0.00 0.00 77 1056.5
20260506184909 10 0 8.0 0.0 0.00 0.00 0.00 77 1056.5
20260506184746 10 22 12.9 0.0 0.00 0.00 0.00 76 1056.4
20260506184634 10 22 14.5 0.0 0.00 0.00 0.00 76 1056.5
20260506184526 10 67 6.4 0.0 0.00 0.00 0.00 76 1056.5
20260506184421 10 0 14.5 0.0 0.00 0.00 0.00 76 1056.5
20260506184314 10 45 16.1 0.0 0.00 0.00 0.00 76 1056.5
20260506184209 10 0 6.4 0.0 0.00 0.00 0.00 76 1056.5
20260506184103 10 337 14.5 0.0 0.00 0.00 0.00 75 1056.6
20260506183943 10 22 11.3 0.0 0.00 0.00 0.00 75 1056.5
20260506183838 10 22 8.0 0.0 0.00 0.00 0.00 76 1056.4
20260506183732 10 45 11.3 0.0 0.00 0.00 0.00 75 1056.4
20260506183610 10 0 9.7 0.0 0.00 0.00 0.00 75 1056.4
20260506183449 10 0 9.7 0.0 0.00 0.00 0.00 75 1056.5
20260506183336 10 0 9.7 0.0 0.00 0.00 0.00 75 1056.5
20260506183215 10 22 8.0 0.0 0.00 0.00 0.00 75 1056.5
20260506183054 10 45 9.7 0.0 0.00 0.00 0.00 75 1056.5
20260506182940 11 337 9.7 0.0 0.00 0.00 0.00 75 1056.5
20260506182829 11 0 9.7 0.0 0.00 0.00 0.00 74 1056.4
20260506182725 10 22 25.7 0.0 0.00 0.00 0.00 74 1056.3
20260506182617 11 45 14.5 0.0 0.00 0.00 0.00 74 1056.4
20260506182506 11 0 30.6 0.0 0.00 0.00 0.00 73 1056.4
20260506182353 11 22 25.7 0.0 0.00 0.00 0.00 72 1056.3
20260506182247 11 0 12.9 0.0 0.00 0.00 0.00 73 1056.3
20260506182141 11 292 16.1 0.0 0.00 0.00 0.00 73 1056.2
20260506182027 11 22 8.0 0.0 0.00 0.00 0.00 73 1056.3
20260506181908 11 45 8.0 0.0 0.00 0.00 0.00 73 1056.2
20260506181801 11 0 17.7 0.0 0.00 0.00 0.00 73 1056.2
20260506181640 11 22 9.7 0.0 0.00 0.00 0.00 73 1056.2
20260506181527 11 337 9.7 0.0 0.00 0.00 0.00 73 1056.2
20260506181408 11 22 19.3 0.0 0.00 0.00 0.00 73 1056.2
20260506181301 11 0 8.0 0.0 0.00 0.00 0.00 73 1056.2
20260506181148 11 0 16.1 0.0 0.00 0.00 0.00 73 1056.1
20260506181029 11 45 8.0 0.0 0.00 0.00 0.00 73 1056.2
20260506180924 11 67 9.7 0.0 0.00 0.00 0.00 73 1056.1
20260506180817 11 0 17.7 0.0 0.00 0.00 0.00 74 1056.1
20260506180655 11 67 19.3 0.0 0.00 0.00 0.00 74 1056.1
20260506180542 11 22 11.3 0.0 0.00 0.00 0.00 74 1056.1
20260506180429 11 0 29.0 0.0 0.00 0.00 0.00 74 1056.0
20260506180307 11 22 20.9 0.0 0.00 0.00 0.00 74 1056.1
20260506180148 11 0 17.7 0.0 0.00 0.00 0.00 74 1056.1
20260506180044 11 22 17.7 0.0 0.00 0.00 0.00 74 1056.1
20260506175939 11 0 14.5 0.0 0.00 0.00 0.00 74 1056.1
20260506175826 11 22 8.0 0.0 0.00 0.00 0.00 73 1056.1
20260506175719 11 0 11.3 0.0 0.00 0.00 0.00 73 1056.1
20260506175605 11 0 11.3 0.0 0.00 0.00 0.00 73 1056.0
20260506175435 11 337 16.1 0.0 0.00 0.00 0.00 73 1056.1
20260506175323 11 45 11.3 0.0 0.00 0.00 0.00 73 1056.1
20260506175209 11 22 14.5 0.0 0.00 0.00 0.00 73 1056.0
20260506175048 11 337 9.7 0.0 0.00 0.00 0.00 73 1056.0
20260506174935 11 337 19.3 0.0 0.00 0.00 0.00 73 1056.0
20260506174814 11 0 9.7 0.0 0.00 0.00 0.00 74 1055.9
20260506174654 11 0 0.0 0.0 0.00 0.00 0.00 74 1056.0
20260506174548 11 0 24.1 0.0 0.00 0.00 0.00 75 1056.0
20260506174443 11 0 9.7 0.0 0.00 0.00 0.00 75 1055.9
20260506174329 11 0 4.8 0.0 0.00 0.00 0.00 75 1055.9
20260506174208 11 0 6.4 0.0 0.00 0.00 0.00 75 1055.8
20260506174055 11 0 9.7 0.0 0.00 0.00 0.00 75 1055.9
20260506173941 11 22 19.3 0.0 0.00 0.00 0.00 75 1055.9
20260506173828 11 0 9.7 0.0 0.00 0.00 0.00 74 1055.8
20260506173443 11 45 27.4 0.0 0.00 0.00 0.00 75 1055.8
20260506173335 11 0 9.7 0.0 0.00 0.00 0.00 75 1055.8
20260506173222 11 0 6.4 0.0 0.00 0.00 0.00 75 1055.8
20260506173110 11 337 11.3 0.0 0.00 0.00 0.00 75 1055.8
20260506172957 11 0 12.9 0.0 0.00 0.00 0.00 75 1055.8
20260506172845 11 22 9.7 0.0 0.00 0.00 0.00 74 1055.8
20260506172738 11 45 27.4 0.0 0.00 0.00 0.00 74 1055.8
20260506172627 11 22 29.0 0.0 0.00 0.00 0.00 75 1055.8
20260506172520 11 0 14.5 0.0 0.00 0.00 0.00 75 1055.8
20260506172407 11 22 14.5 0.0 0.00 0.00 0.00 75 1055.8
20260506172306 11 45 11.3 0.0 0.00 0.00 0.00 74 1055.8
20260506172150 11 22 11.3 0.0 0.00 0.00 0.00 74 1055.8
20260506172035 11 22 9.7 0.0 0.00 0.00 0.00 74 1055.8
20260506171925 11 67 20.9 0.0 0.00 0.00 0.00 74 1055.8
20260506171820 11 22 19.3 0.0 0.00 0.00 0.00 73 1055.8
20260506171712 11 67 22.5 0.0 0.00 0.00 0.00 73 1055.8
20260506171559 11 22 11.3 0.0 0.00 0.00 0.00 73 1055.8
20260506171446 11 22 22.5 0.0 0.00 0.00 0.00 73 1055.8
20260506171332 11 0 11.3 0.0 0.00 0.00 0.00 73 1055.8
20260506171211 11 22 20.9 0.0 0.00 0.00 0.00 74 1055.8
20260506171052 11 22 16.1 0.0 0.00 0.00 0.00 74 1055.8
20260506170948 11 337 22.5 0.0 0.00 0.00 0.00 74 1055.8
20260506170841 11 337 16.1 0.0 0.00 0.00 0.00 74 1055.8
20260506170728 11 22 25.7 0.0 0.00 0.00 0.00 74 1055.8
20260506170615 11 22 12.9 0.0 0.00 0.00 0.00 74 1055.8
20260506170453 11 315 11.3 0.0 0.00 0.00 0.00 74 1055.8
20260506170341 11 22 9.7 0.0 0.00 0.00 0.00 73 1055.8
20260506170228 11 22 14.5 0.0 0.00 0.00 0.00 73 1055.8
20260506170124 11 22 25.7 0.0 0.00 0.00 0.00 72 1055.8
20260506170018 11 0 6.4 0.0 0.00 0.00 0.00 72 1055.7
20260506165904 11 0 9.7 0.0 0.00 0.00 0.00 72 1055.8
20260506165742 11 22 11.3 0.0 0.00 0.00 0.00 72 1055.8
20260506165621 11 67 22.5 0.0 0.00 0.00 0.00 72 1055.8
20260506165502 11 0 9.7 0.0 0.00 0.00 0.00 72 1055.8
20260506165356 11 45 20.9 0.0 0.00 0.00 0.00 72 1055.8
20260506165253 11 0 9.7 0.0 0.00 0.00 0.00 71 1055.8
20260506165144 11 45 17.7 0.0 0.00 0.00 0.00 71 1055.8
20260506165030 11 0 16.1 0.0 0.00 0.00 0.00 71 1055.8
20260506164923 11 0 9.7 0.0 0.00 0.00 0.00 71 1055.8
20260506164753 11 22 16.1 0.0 0.00 0.00 0.00 71 1055.8
20260506164638 11 337 11.3 0.0 0.00 0.00 0.00 71 1055.8
20260506164516 11 0 19.3 0.0 0.00 0.00 0.00 71 1055.8
20260506164405 11 0 16.1 0.0 0.00 0.00 0.00 71 1055.8
20260506164259 11 22 6.4 0.0 0.00 0.00 0.00 70 1055.8
20260506164150 11 337 12.9 0.0 0.00 0.00 0.00 70 1055.8
20260506164036 11 0 16.1 0.0 0.00 0.00 0.00 71 1055.8
20260506163932 11 45 9.7 0.0 0.00 0.00 0.00 71 1055.8
20260506163817 11 22 8.0 0.0 0.00 0.00 0.00 70 1055.8
20260506163704 11 22 14.5 0.0 0.00 0.00 0.00 70 1055.8
20260506163553 11 22 8.0 0.0 0.00 0.00 0.00 70 1055.8
20260506163447 11 337 16.1 0.0 0.00 0.00 0.00 70 1055.8
20260506163334 11 0 16.1 0.0 0.00 0.00 0.00 69 1055.8
20260506163229 12 22 9.7 0.0 0.00 0.00 0.00 68 1055.8
20260506163124 12 0 11.3 0.0 0.00 0.00 0.00 68 1055.8
20260506163010 12 45 24.1 0.0 0.00 0.00 0.00 68 1055.8
20260506162852 12 22 16.1 0.0 0.00 0.00 0.00 68 1055.8
20260506162744 12 0 9.7 0.0 0.00 0.00 0.00 68 1055.8
20260506162630 12 22 14.5 0.0 0.00 0.00 0.00 68 1055.8
20260506162510 12 22 9.7 0.0 0.00 0.00 0.00 69 1055.8
20260506162359 12 45 24.1 0.0 0.00 0.00 0.00 69 1055.8
20260506162252 12 0 24.1 0.0 0.00 0.00 0.00 70 1055.8
20260506162147 12 0 9.7 0.0 0.00 0.00 0.00 71 1055.8
20260506162033 12 22 12.9 0.0 0.00 0.00 0.00 71 1055.8
20260506161928 11 337 9.7 0.0 0.00 0.00 0.00 71 1055.8
20260506161821 11 67 9.7 0.0 0.00 0.00 0.00 71 1055.8
20260506161708 11 0 20.9 0.0 0.00 0.00 0.00 71 1055.7
20260506161557 11 337 20.9 0.0 0.00 0.00 0.00 71 1055.8
20260506161450 11 0 11.3 0.0 0.00 0.00 0.00 71 1055.8
20260506161330 11 22 12.9 0.0 0.00 0.00 0.00 72 1055.8
20260506161216 11 0 24.1 0.0 0.00 0.00 0.00 72 1055.8
20260506161103 11 22 9.7 0.0 0.00 0.00 0.00 72 1055.7
20260506160942 11 0 9.7 0.0 0.00 0.00 0.00 72 1055.8
20260506160837 11 22 8.0 0.0 0.00 0.00 0.00 72 1055.8
20260506160732 11 22 24.1 0.0 0.00 0.00 0.00 71 1055.7
20260506160620 11 0 9.7 0.0 0.00 0.00 0.00 71 1055.7
20260506160515 11 22 27.4 0.0 0.00 0.00 0.00 71 1055.8
20260506160407 11 0 11.3 0.0 0.00 0.00 0.00 71 1055.8
20260506160254 11 45 12.9 0.0 0.00 0.00 0.00 71 1055.7
20260506160143 11 337 19.3 0.0 0.00 0.00 0.00 70 1055.7
20260506160030 11 22 14.5 0.0 0.00 0.00 0.00 70 1055.7
20260506155923 11 337 9.7 0.0 0.00 0.00 0.00 70 1055.7
20260506155813 11 22 8.0 0.0 0.00 0.00 0.00 71 1055.8
20260506155658 11 0 8.0 0.0 0.00 0.00 0.00 70 1055.8
20260506155545 11 45 9.7 0.0 0.00 0.00 0.00 69 1055.8
20260506155432 11 22 9.7 0.0 0.00 0.00 0.00 68 1055.7
20260506155326 12 0 9.7 0.0 0.00 0.00 0.00 68 1055.8
20260506155205 12 0 14.5 0.0 0.00 0.00 0.00 67 1055.8
20260506155052 12 45 25.7 0.0 0.00 0.00 0.00 66 1055.8
20260506154933 12 112 20.9 0.0 0.00 0.00 0.00 66 1055.8
20260506154818 12 0 11.3 0.0 0.00 0.00 0.00 65 1055.8
20260506154705 12 22 9.7 0.0 0.00 0.00 0.00 66 1055.8
20260506154552 12 0 12.9 0.0 0.00 0.00 0.00 67 1055.8
20260506154446 12 22 16.1 0.0 0.00 0.00 0.00 67 1055.8
20260506154334 12 0 6.4 0.0 0.00 0.00 0.00 67 1055.8
20260506154212 12 337 8.0 0.0 0.00 0.00 0.00 68 1055.8
20260506154058 12 0 12.9 0.0 0.00 0.00 0.00 68 1055.8
20260506153948 12 22 19.3 0.0 0.00 0.00 0.00 68 1055.8
20260506153840 12 45 9.7 0.0 0.00 0.00 0.00 68 1055.8
20260506153719 12 0 24.1 0.0 0.00 0.00 0.00 67 1055.8
20260506153606 12 22 4.8 0.0 0.00 0.00 0.00 67 1055.8
20260506153445 12 0 9.7 0.0 0.00 0.00 0.00 66 1055.8
20260506153325 12 22 20.9 0.0 0.00 0.00 0.00 65 1055.8
20260506153221 13 22 24.1 0.0 0.00 0.00 0.00 65 1055.8
20260506153115 13 45 22.5 0.0 0.00 0.00 0.00 66 1055.8
20260506153009 13 67 16.1 0.0 0.00 0.00 0.00 66 1055.8
20260506152904 12 0 27.4 0.0 0.00 0.00 0.00 67 1055.8
20260506152735 12 22 20.9 0.0 0.00 0.00 0.00 67 1055.8
20260506152622 12 337 8.0 0.0 0.00 0.00 0.00 67 1055.8
20260506152500 12 22 6.4 0.0 0.00 0.00 0.00 67 1055.8
20260506152348 12 0 14.5 0.0 0.00 0.00 0.00 66 1055.8
20260506152234 12 45 14.5 0.0 0.00 0.00 0.00 67 1055.7
20260506152113 12 0 9.7 0.0 0.00 0.00 0.00 66 1055.8
20260506152008 12 22 14.5 0.0 0.00 0.00 0.00 67 1055.8
20260506151857 12 0 9.7 0.0 0.00 0.00 0.00 67 1055.8
20260506151749 12 0 8.0 0.0 0.00 0.00 0.00 68 1055.8
20260506151636 12 0 9.7 0.0 0.00 0.00 0.00 67 1055.8
20260506151523 12 45 12.9 0.0 0.00 0.00 0.00 66 1055.8
20260506151411 12 0 20.9 0.0 0.00 0.00 0.00 66 1055.8
20260506151251 13 45 25.7 0.0 0.00 0.00 0.00 66 1055.7
20260506151146 13 22 12.9 0.0 0.00 0.00 0.00 66 1055.7
20260506151040 13 0 16.1 0.0 0.00 0.00 0.00 66 1055.8
20260506150919 13 337 14.5 0.0 0.00 0.00 0.00 67 1055.7
20260506150806 13 22 9.7 0.0 0.00 0.00 0.00 66 1055.7
20260506150646 13 22 8.0 0.0 0.00 0.00 0.00 65 1055.7
20260506150539 13 45 16.1 0.0 0.00 0.00 0.00 64 1055.7
20260506150428 13 22 29.0 0.0 0.00 0.00 0.00 64 1055.6
20260506150313 13 0 17.7 0.0 0.00 0.00 0.00 64 1055.7
20260506150201 13 112 22.5 0.0 0.00 0.00 0.00 65 1055.7
20260506150055 13 22 9.7 0.0 0.00 0.00 0.00 65 1055.7
20260506145949 13 0 19.3 0.0 0.00 0.00 0.00 64 1055.7
20260506145828 14 45 14.5 0.0 0.00 0.00 0.00 63 1055.7
20260506145725 14 45 19.3 0.0 0.00 0.00 0.00 63 1055.7
20260506145618 14 45 16.1 0.0 0.00 0.00 0.00 63 1055.8
20260506145513 14 0 12.9 0.0 0.00 0.00 0.00 62 1055.7
20260506145408 14 337 19.3 0.0 0.00 0.00 0.00 63 1055.7
20260506145256 14 0 9.7 0.0 0.00 0.00 0.00 63 1055.7
20260506145152 14 45 9.7 0.0 0.00 0.00 0.00 63 1055.7
20260506145044 14 45 12.9 0.0 0.00 0.00 0.00 64 1055.7
20260506144923 14 337 12.9 0.0 0.00 0.00 0.00 63 1055.7
20260506144809 14 22 17.7 0.0 0.00 0.00 0.00 64 1055.7
20260506144648 14 0 14.5 0.0 0.00 0.00 0.00 64 1055.8
20260506144535 14 22 14.5 0.0 0.00 0.00 0.00 64 1055.8
20260506144425 14 0 9.7 0.0 0.00 0.00 0.00 64 1055.7
20260506144317 14 22 19.3 0.0 0.00 0.00 0.00 64 1055.7
20260506144157 14 0 9.7 0.0 0.00 0.00 0.00 63 1055.7
20260506144051 14 45 17.7 0.0 0.00 0.00 0.00 62 1055.6
20260506143938 14 22 24.1 0.0 0.00 0.00 0.00 63 1055.7
20260506143816 14 0 12.9 0.0 0.00 0.00 0.00 64 1055.7
20260506143704 14 22 9.7 0.0 0.00 0.00 0.00 65 1055.7
20260506143550 14 22 19.3 0.0 0.00 0.00 0.00 67 1055.8
20260506143429 13 90 9.7 0.0 0.00 0.00 0.00 67 1055.7
20260506143316 13 22 19.3 0.0 0.00 0.00 0.00 67 1055.7
20260506143155 13 22 14.5 0.0 0.00 0.00 0.00 67 1055.8
20260506143044 13 0 9.7 0.0 0.00 0.00 0.00 67 1055.8
20260506142937 13 22 11.3 0.0 0.00 0.00 0.00 67 1055.8
20260506142825 13 0 14.5 0.0 0.00 0.00 0.00 67 1055.7
20260506142720 13 0 17.7 0.0 0.00 0.00 0.00 68 1055.8
20260506142614 13 45 17.7 0.0 0.00 0.00 0.00 67 1055.8
20260506142509 13 337 14.5 0.0 0.00 0.00 0.00 67 1055.8
20260506142404 13 45 29.0 0.0 0.00 0.00 0.00 67 1055.8
20260506142258 13 22 14.5 0.0 0.00 0.00 0.00 67 1055.8
20260506142140 13 90 14.5 0.0 0.00 0.00 0.00 67 1055.8
20260506142032 13 67 16.1 0.0 0.00 0.00 0.00 68 1055.8
20260506141911 13 337 8.0 0.0 0.00 0.00 0.00 67 1055.8
20260506141749 13 22 17.7 0.0 0.00 0.00 0.00 67 1055.9
20260506141629 13 22 11.3 0.0 0.00 0.00 0.00 68 1055.9
20260506141515 13 0 11.3 0.0 0.00 0.00 0.00 69 1055.9
20260506141355 13 45 17.7 0.0 0.00 0.00 0.00 68 1055.8
20260506141250 13 22 14.5 0.0 0.00 0.00 0.00 68 1055.9
20260506141128 13 22 17.7 0.0 0.00 0.00 0.00 69 1055.8
20260506141009 13 0 0.0 0.0 0.00 0.00 0.00 69 1055.8
20260506140902 13 22 12.9 0.0 0.00 0.00 0.00 68 1055.9
20260506140749 13 22 9.7 0.0 0.00 0.00 0.00 68 1055.9
20260506140643 13 22 12.9 0.0 0.00 0.00 0.00 69 1055.9
20260506140529 13 0 17.7 0.0 0.00 0.00 0.00 68 1055.8
20260506140401 13 0 9.7 0.0 0.00 0.00 0.00 69 1055.8
20260506140242 13 90 19.3 0.0 0.00 0.00 0.00 69 1055.8
20260506140137 13 0 9.7 0.0 0.00 0.00 0.00 69 1055.8
20260506140030 13 0 9.7 0.0 0.00 0.00 0.00 70 1055.8
20260506135908 13 0 17.7 0.0 0.00 0.00 0.00 70 1055.8
20260506135747 13 0 6.4 0.0 0.00 0.00 0.00 70 1055.8
20260506135637 13 45 12.9 0.0 0.00 0.00 0.00 70 1055.8
20260506135530 13 45 8.0 0.0 0.00 0.00 0.00 71 1055.8
20260506135427 13 45 14.5 0.0 0.00 0.00 0.00 70 1055.8
20260506135320 13 0 14.5 0.0 0.00 0.00 0.00 70 1055.8
20260506135215 13 0 14.5 0.0 0.00 0.00 0.00 72 1055.9
20260506135102 13 0 8.0 0.0 0.00 0.00 0.00 72 1055.7
20260506134955 13 0 11.3 0.0 0.00 0.00 0.00 72 1055.8
20260506134835 13 22 14.5 0.0 0.00 0.00 0.00 71 1055.8
20260506134719 13 0 17.7 0.0 0.00 0.00 0.00 72 1055.8
20260506134607 13 0 6.4 0.0 0.00 0.00 0.00 72 1055.8
20260506134500 13 45 14.5 0.0 0.00 0.00 0.00 71 1055.8
20260506134355 13 45 22.5 0.0 0.00 0.00 0.00 70 1055.8
20260506134249 13 45 19.3 0.0 0.00 0.00 0.00 71 1055.8
20260506134144 13 22 25.7 0.0 0.00 0.00 0.00 73 1055.8
20260506134031 13 112 11.3 0.0 0.00 0.00 0.00 73 1055.8
20260506133909 12 0 0.0 0.0 0.00 0.00 0.00 72 1055.7
20260506133756 12 22 11.3 0.0 0.00 0.00 0.00 72 1055.8
20260506133651 12 22 8.0 0.0 0.00 0.00 0.00 71 1055.8
20260506133529 13 45 27.4 0.0 0.00 0.00 0.00 72 1055.7
20260506133408 13 67 20.9 0.0 0.00 0.00 0.00 72 1055.8
20260506133302 13 0 9.7 0.0 0.00 0.00 0.00 72 1055.7
20260506133148 13 0 14.5 0.0 0.00 0.00 0.00 72 1055.6
20260506133035 13 45 11.3 0.0 0.00 0.00 0.00 73 1055.7
20260506132914 13 22 17.7 0.0 0.00 0.00 0.00 73 1055.7
20260506132809 13 67 22.5 0.0 0.00 0.00 0.00 72 1055.7
20260506132705 12 45 11.3 0.0 0.00 0.00 0.00 72 1055.7
20260506132558 12 22 16.1 0.0 0.00 0.00 0.00 73 1055.7
20260506132438 12 45 16.1 0.0 0.00 0.00 0.00 73 1055.8
20260506132324 12 0 9.7 0.0 0.00 0.00 0.00 74 1055.8
20260506132214 12 45 9.7 0.0 0.00 0.00 0.00 74 1055.7
20260506132059 12 0 16.1 0.0 0.00 0.00 0.00 73 1055.7
20260506131953 12 0 30.6 0.0 0.00 0.00 0.00 74 1055.7
20260506131840 12 337 14.5 0.0 0.00 0.00 0.00 75 1055.7
20260506131719 12 337 14.5 0.0 0.00 0.00 0.00 74 1055.7
20260506131607 12 45 14.5 0.0 0.00 0.00 0.00 74 1055.6
20260506131500 12 45 11.3 0.0 0.00 0.00 0.00 73 1055.6
20260506131339 12 22 27.4 0.0 0.00 0.00 0.00 74 1055.7
20260506131226 12 0 22.5 0.0 0.00 0.00 0.00 74 1055.7
20260506131113 12 45 16.1 0.0 0.00 0.00 0.00 75 1055.7
20260506131008 12 0 17.7 0.0 0.00 0.00 0.00 75 1055.7
20260506130847 12 0 9.7 0.0 0.00 0.00 0.00 74 1055.7
20260506130733 12 45 9.7 0.0 0.00 0.00 0.00 74 1055.6
20260506130623 12 337 24.1 0.0 0.00 0.00 0.00 74 1055.6
20260506130517 12 0 14.5 0.0 0.00 0.00 0.00 75 1055.7
20260506130403 12 22 17.7 0.0 0.00 0.00 0.00 75 1055.7
20260506130257 12 45 9.7 0.0 0.00 0.00 0.00 75 1055.8
20260506130145 12 0 8.0 0.0 0.00 0.00 0.00 75 1055.7
20260506130031 12 0 9.7 0.0 0.00 0.00 0.00 75 1055.7
20260506125925 12 22 6.4 0.0 0.00 0.00 0.00 75 1055.7
20260506125813 12 337 19.3 0.0 0.00 0.00 0.00 75 1055.7
20260506125700 12 45 17.7 0.0 0.00 0.00 0.00 75 1055.6
20260506125538 12 22 19.3 0.0 0.00 0.00 0.00 75 1055.7
20260506125426 12 22 20.9 0.0 0.00 0.00 0.00 75 1055.7
20260506125315 12 22 22.5 0.0 0.00 0.00 0.00 75 1055.7
20260506125159 12 0 17.7 0.0 0.00 0.00 0.00 74 1055.6
20260506125046 12 337 22.5 0.0 0.00 0.00 0.00 74 1055.7
20260506124934 12 45 9.7 0.0 0.00 0.00 0.00 74 1055.7
20260506124828 12 0 20.9 0.0 0.00 0.00 0.00 74 1055.6
20260506124714 13 45 14.5 0.0 0.00 0.00 0.00 73 1055.6
20260506124553 13 22 20.9 0.0 0.00 0.00 0.00 73 1055.7
20260506124424 13 45 17.7 0.0 0.00 0.00 0.00 73 1055.6
20260506124312 13 22 12.9 0.0 0.00 0.00 0.00 73 1055.6
20260506124207 13 0 6.4 0.0 0.00 0.00 0.00 73 1055.5
20260506124053 13 22 11.3 0.0 0.00 0.00 0.00 74 1055.5
20260506123941 13 0 8.0 0.0 0.00 0.00 0.00 73 1055.5
20260506123818 13 0 20.9 0.0 0.00 0.00 0.00 73 1055.5
20260506123657 13 45 17.7 0.0 0.00 0.00 0.00 73 1055.5
20260506123537 13 22 19.3 0.0 0.00 0.00 0.00 73 1055.5
20260506123430 13 0 12.9 0.0 0.00 0.00 0.00 73 1055.5
20260506123309 13 0 17.7 0.0 0.00 0.00 0.00 72 1055.5
20260506123149 13 45 9.7 0.0 0.00 0.00 0.00 72 1055.5
20260506123045 13 22 8.0 0.0 0.00 0.00 0.00 72 1055.5
20260506122938 13 0 17.7 0.0 0.00 0.00 0.00 71 1055.5
20260506122832 13 0 12.9 0.0 0.00 0.00 0.00 71 1055.5
20260506122727 13 22 8.0 0.0 0.00 0.00 0.00 72 1055.5
20260506122622 13 0 8.0 0.0 0.00 0.00 0.00 71 1055.5
20260506122515 13 22 16.1 0.0 0.00 0.00 0.00 71 1055.5
20260506122402 13 67 12.9 0.0 0.00 0.00 0.00 72 1055.5
20260506122242 13 22 0.0 0.0 0.00 0.00 0.00 72 1055.4
20260506122135 13 67 16.1 0.0 0.00 0.00 0.00 71 1055.4
20260506122022 13 22 9.7 0.0 0.00 0.00 0.00 71 1055.4
20260506121910 13 67 9.7 0.0 0.00 0.00 0.00 70 1055.5
20260506121757 13 22 20.9 0.0 0.00 0.00 0.00 70 1055.4
20260506121653 13 45 19.3 0.0 0.00 0.00 0.00 70 1055.5
20260506121538 13 45 11.3 0.0 0.00 0.00 0.00 71 1055.4
20260506121424 13 22 9.7 0.0 0.00 0.00 0.00 71 1055.4
20260506121305 13 337 12.9 0.0 0.00 0.00 0.00 70 1055.4
20260506121158 13 67 19.3 0.0 0.00 0.00 0.00 70 1055.4
20260506121037 13 45 12.9 0.0 0.00 0.00 0.00 69 1055.4
20260506120916 13 45 20.9 0.0 0.00 0.00 0.00 68 1055.4
20260506120813 13 0 20.9 0.0 0.00 0.00 0.00 68 1055.3
20260506120658 14 45 9.7 0.0 0.00 0.00 0.00 69 1055.3
20260506120545 13 45 9.7 0.0 0.00 0.00 0.00 69 1055.3
20260506120431 13 337 9.7 0.0 0.00 0.00 0.00 70 1055.4
20260506120311 13 0 8.0 0.0 0.00 0.00 0.00 69 1055.2
20260506120207 13 22 12.9 0.0 0.00 0.00 0.00 69 1055.2
20260506120100 13 67 16.1 0.0 0.00 0.00 0.00 69 1055.2
20260506115948 13 45 12.9 0.0 0.00 0.00 0.00 69 1055.2
20260506115820 13 22 24.1 0.0 0.00 0.00 0.00 70 1055.2
20260506115715 13 0 20.9 0.0 0.00 0.00 0.00 69 1055.3
20260506115609 13 22 14.5 0.0 0.00 0.00 0.00 70 1055.3
20260506115505 13 45 19.3 0.0 0.00 0.00 0.00 70 1055.3
20260506115400 13 22 17.7 0.0 0.00 0.00 0.00 70 1055.2
20260506115253 13 45 20.9 0.0 0.00 0.00 0.00 69 1055.3
20260506115140 13 22 14.5 0.0 0.00 0.00 0.00 69 1055.3
20260506115035 13 337 8.0 0.0 0.00 0.00 0.00 68 1055.4
20260506114931 13 0 14.5 0.0 0.00 0.00 0.00 68 1055.3
20260506114824 14 0 9.7 0.0 0.00 0.00 0.00 68 1055.3
20260506114706 14 45 17.7 0.0 0.00 0.00 0.00 68 1055.3
20260506114558 14 0 27.4 0.0 0.00 0.00 0.00 68 1055.3
20260506114448 14 45 19.3 0.0 0.00 0.00 0.00 68 1055.3
20260506114340 14 292 11.3 0.0 0.00 0.00 0.00 68 1055.3
20260506114227 14 22 12.9 0.0 0.00 0.00 0.00 67 1055.3
20260506114122 14 22 12.9 0.0 0.00 0.00 0.00 66 1055.2
20260506114001 14 45 17.7 0.0 0.00 0.00 0.00 66 1055.2
20260506113840 14 67 11.3 0.0 0.00 0.00 0.00 65 1055.2
20260506113726 14 22 12.9 0.0 0.00 0.00 0.00 66 1055.2
20260506113605 14 67 9.7 0.0 0.00 0.00 0.00 66 1055.2
20260506113452 14 22 12.9 0.0 0.00 0.00 0.00 66 1055.3
20260506113347 14 67 11.3 0.0 0.00 0.00 0.00 65 1055.3
20260506113235 14 0 20.9 0.0 0.00 0.00 0.00 64 1055.3
20260506113128 14 45 14.5 0.0 0.00 0.00 0.00 65 1055.3
20260506113014 14 22 20.9 0.0 0.00 0.00 0.00 64 1055.3
20260506112902 14 22 24.1 0.0 0.00 0.00 0.00 64 1055.3
20260506112748 14 0 19.3 0.0 0.00 0.00 0.00 64 1055.3
20260506112627 14 22 19.3 0.0 0.00 0.00 0.00 64 1055.3
20260506112520 14 0 8.0 0.0 0.00 0.00 0.00 64 1055.3
20260506112409 14 45 22.5 0.0 0.00 0.00 0.00 64 1055.3
20260506112305 14 45 12.9 0.0 0.00 0.00 0.00 64 1055.3
20260506112149 14 22 9.7 0.0 0.00 0.00 0.00 63 1055.3
20260506112045 14 22 11.3 0.0 0.00 0.00 0.00 63 1055.3
20260506111939 14 0 6.4 0.0 0.00 0.00 0.00 63 1055.4
20260506111834 14 67 16.1 0.0 0.00 0.00 0.00 62 1055.3
20260506111712 14 0 19.3 0.0 0.00 0.00 0.00 62 1055.3
20260506111600 14 45 29.0 0.0 0.00 0.00 0.00 63 1055.4
20260506111447 14 0 9.7 0.0 0.00 0.00 0.00 63 1055.2
20260506111341 14 67 17.7 0.0 0.00 0.00 0.00 63 1055.3
20260506111237 14 22 6.4 0.0 0.00 0.00 0.00 62 1055.4
20260506111132 14 22 8.0 0.0 0.00 0.00 0.00 62 1055.3
20260506111025 14 22 12.9 0.0 0.00 0.00 0.00 62 1055.2
20260506110913 14 22 14.5 0.0 0.00 0.00 0.00 62 1055.3
20260506110752 14 337 14.5 0.0 0.00 0.00 0.00 62 1055.2
20260506110631 14 67 20.9 0.0 0.00 0.00 0.00 62 1055.3
20260506110517 13 67 24.1 0.0 0.00 0.00 0.00 61 1055.2
20260506110357 13 45 11.3 0.0 0.00 0.00 0.00 60 1055.3
20260506110251 13 22 29.0 0.0 0.00 0.00 0.00 61 1055.2
20260506110147 13 45 14.5 0.0 0.00 0.00 0.00 60 1055.3
20260506110042 13 67 19.3 0.0 0.00 0.00 0.00 61 1055.3
20260506105936 13 67 14.5 0.0 0.00 0.00 0.00 61 1055.3
20260506105815 13 45 17.7 0.0 0.00 0.00 0.00 62 1055.3
20260506105654 13 45 11.3 0.0 0.00 0.00 0.00 61 1055.2
20260506105549 13 90 11.3 0.0 0.00 0.00 0.00 61 1055.2
20260506105443 13 45 29.0 0.0 0.00 0.00 0.00 60 1055.2
20260506105330 13 45 19.3 0.0 0.00 0.00 0.00 61 1055.2
20260506105201 13 90 8.0 0.0 0.00 0.00 0.00 61 1055.2
20260506105048 13 67 17.7 0.0 0.00 0.00 0.00 60 1055.2
20260506104935 13 45 12.9 0.0 0.00 0.00 0.00 60 1055.2
20260506104814 13 22 16.1 0.0 0.00 0.00 0.00 61 1055.2
20260506104701 13 45 6.4 0.0 0.00 0.00 0.00 61 1055.2
20260506104548 13 22 11.3 0.0 0.00 0.00 0.00 63 1055.2
20260506104418 13 45 17.7 0.0 0.00 0.00 0.00 62 1055.2
20260506104257 13 67 11.3 0.0 0.00 0.00 0.00 62 1055.2
20260506104144 13 67 9.7 0.0 0.00 0.00 0.00 62 1055.2
20260506104039 13 45 16.1 0.0 0.00 0.00 0.00 63 1055.2
20260506103934 13 45 11.3 0.0 0.00 0.00 0.00 63 1055.2
20260506103830 13 90 8.0 0.0 0.00 0.00 0.00 63 1055.2
20260506103724 13 67 24.1 0.0 0.00 0.00 0.00 62 1055.2
20260506103610 13 45 17.7 0.0 0.00 0.00 0.00 62 1055.2
20260506103450 13 67 16.1 0.0 0.00 0.00 0.00 62 1055.3
20260506103337 13 67 8.0 0.0 0.00 0.00 0.00 62 1055.2
20260506103232 13 67 11.3 0.0 0.00 0.00 0.00 62 1055.2
20260506103126 13 45 11.3 0.0 0.00 0.00 0.00 62 1055.2
20260506103013 13 22 6.4 0.0 0.00 0.00 0.00 62 1055.2
20260506102900 13 112 12.9 0.0 0.00 0.00 0.00 64 1055.2
20260506102739 13 45 8.0 0.0 0.00 0.00 0.00 64 1055.2
20260506102626 13 45 8.0 0.0 0.00 0.00 0.00 63 1055.2
20260506102521 13 112 19.3 0.0 0.00 0.00 0.00 63 1055.2
20260506102408 13 67 19.3 0.0 0.00 0.00 0.00 62 1055.1
20260506102257 13 0 6.4 0.0 0.00 0.00 0.00 63 1055.1
20260506102150 13 67 12.9 0.0 0.00 0.00 0.00 64 1055.1
20260506102045 13 45 16.1 0.0 0.00 0.00 0.00 64 1055.2
20260506101940 13 67 4.8 0.0 0.00 0.00 0.00 64 1055.1
20260506101827 13 112 4.8 0.0 0.00 0.00 0.00 63 1055.1
20260506101722 13 45 12.9 0.0 0.00 0.00 0.00 65 1055.1
20260506101616 13 90 25.7 0.0 0.00 0.00 0.00 65 1055.1
20260506101511 13 90 16.1 0.0 0.00 0.00 0.00 66 1055.2
20260506101406 12 67 0.0 0.0 0.00 0.00 0.00 66 1055.2
20260506101255 12 90 9.7 0.0 0.00 0.00 0.00 66 1055.1
20260506101139 12 45 24.1 0.0 0.00 0.00 0.00 66 1055.1
20260506101029 12 112 11.3 0.0 0.00 0.00 0.00 66 1055.1
20260506100922 12 45 17.7 0.0 0.00 0.00 0.00 66 1055.1
20260506100802 12 90 11.3 0.0 0.00 0.00 0.00 66 1055.1
20260506100658 12 22 6.4 0.0 0.00 0.00 0.00 67 1055.1
20260506100550 12 22 12.9 0.0 0.00 0.00 0.00 67 1055.1
20260506100440 12 112 0.0 0.0 0.00 0.00 0.00 66 1055.1
20260506100332 12 22 22.5 0.0 0.00 0.00 0.00 66 1055.1
20260506100212 12 45 4.8 0.0 0.00 0.00 0.00 66 1055.1
20260506100058 12 45 16.1 0.0 0.00 0.00 0.00 66 1055.1
20260506095938 12 67 12.9 0.0 0.00 0.00 0.00 66 1055.1
20260506095832 12 67 14.5 0.0 0.00 0.00 0.00 66 1055.0
20260506095718 12 45 27.4 0.0 0.00 0.00 0.00 66 1055.0
20260506095606 12 0 12.9 0.0 0.00 0.00 0.00 66 1055.0
20260506095445 12 45 12.9 0.0 0.00 0.00 0.00 67 1055.1
20260506095332 12 112 12.9 0.0 0.00 0.00 0.00 67 1055.0
20260506095227 12 112 11.3 0.0 0.00 0.00 0.00 67 1055.0
20260506095122 12 67 14.5 0.0 0.00 0.00 0.00 67 1055.1
20260506095008 12 22 12.9 0.0 0.00 0.00 0.00 66 1055.0
20260506094855 12 45 19.3 0.0 0.00 0.00 0.00 67 1055.0
20260506094735 12 45 8.0 0.0 0.00 0.00 0.00 67 1055.0
20260506094630 12 90 4.8 0.0 0.00 0.00 0.00 68 1055.0
20260506094525 12 45 12.9 0.0 0.00 0.00 0.00 68 1055.0
20260506094411 12 22 22.5 0.0 0.00 0.00 0.00 68 1054.9
20260506094258 12 22 8.0 0.0 0.00 0.00 0.00 68 1055.0
20260506094146 12 67 8.0 0.0 0.00 0.00 0.00 67 1054.9
20260506094040 12 90 27.4 0.0 0.00 0.00 0.00 68 1054.8
20260506093927 12 0 14.5 0.0 0.00 0.00 0.00 68 1054.8
20260506093813 12 45 12.9 0.0 0.00 0.00 0.00 68 1054.8
20260506093700 12 67 9.7 0.0 0.00 0.00 0.00 68 1055.0
20260506093539 12 45 19.3 0.0 0.00 0.00 0.00 68 1054.9
20260506093426 12 0 6.4 0.0 0.00 0.00 0.00 67 1054.9
20260506093313 12 22 20.9 0.0 0.00 0.00 0.00 67 1054.9
20260506093201 12 22 14.5 0.0 0.00 0.00 0.00 67 1054.9
20260506093054 12 22 0.0 0.0 0.00 0.00 0.00 67 1055.0
20260506092942 12 112 14.5 0.0 0.00 0.00 0.00 67 1055.1
20260506092830 12 90 9.7 0.0 0.00 0.00 0.00 68 1055.0
20260506092723 12 90 6.4 0.0 0.00 0.00 0.00 68 1055.0
20260506092612 12 45 9.7 0.0 0.00 0.00 0.00 68 1055.0
20260506092505 12 45 8.0 0.0 0.00 0.00 0.00 67 1055.0
20260506092400 12 22 9.7 0.0 0.00 0.00 0.00 66 1055.0
20260506092250 12 45 16.1 0.0 0.00 0.00 0.00 66 1055.0
20260506092143 12 67 9.7 0.0 0.00 0.00 0.00 66 1055.0
20260506092029 12 90 11.3 0.0 0.00 0.00 0.00 67 1055.0
20260506091909 12 67 8.0 0.0 0.00 0.00 0.00 66 1055.0
20260506091805 12 67 14.5 0.0 0.00 0.00 0.00 66 1055.1
20260506091659 12 45 11.3 0.0 0.00 0.00 0.00 67 1055.0
20260506091552 12 67 3.2 0.0 0.00 0.00 0.00 67 1055.0
20260506091431 12 67 9.7 0.0 0.00 0.00 0.00 67 1055.0
20260506091309 12 90 24.1 0.0 0.00 0.00 0.00 66 1055.0
20260506091142 12 67 8.0 0.0 0.00 0.00 0.00 67 1055.0
20260506091037 12 67 11.3 0.0 0.00 0.00 0.00 67 1055.0
20260506090923 12 67 6.4 0.0 0.00 0.00 0.00 67 1054.9
20260506090801 12 90 11.3 0.0 0.00 0.00 0.00 66 1055.0
20260506090635 12 45 9.7 0.0 0.00 0.00 0.00 66 1054.9
20260506090527 12 112 20.9 0.0 0.00 0.00 0.00 66 1054.9
20260506090414 12 45 24.1 0.0 0.00 0.00 0.00 66 1054.9
20260506090301 12 67 6.4 0.0 0.00 0.00 0.00 66 1054.9
20260506090148 12 45 14.5 0.0 0.00 0.00 0.00 67 1055.0
20260506090037 12 45 11.3 0.0 0.00 0.00 0.00 66 1054.8
20260506085930 12 112 17.7 0.0 0.00 0.00 0.00 66 1055.0
20260506085810 12 45 17.7 0.0 0.00 0.00 0.00 66 1054.9
20260506085657 12 67 17.7 0.0 0.00 0.00 0.00 67 1054.8
20260506085551 12 112 19.3 0.0 0.00 0.00 0.00 67 1054.9
20260506085439 12 90 9.7 0.0 0.00 0.00 0.00 66 1054.9
20260506085335 12 67 9.7 0.0 0.00 0.00 0.00 67 1054.9
20260506085227 12 67 17.7 0.0 0.00 0.00 0.00 69 1054.9
20260506085106 12 90 8.0 0.0 0.00 0.00 0.00 68 1054.8
20260506084944 12 45 0.0 0.0 0.00 0.00 0.00 69 1054.9
20260506084832 12 90 11.3 0.0 0.00 0.00 0.00 68 1054.9
20260506084710 12 67 9.7 0.0 0.00 0.00 0.00 68 1054.9
20260506084550 12 90 11.3 0.0 0.00 0.00 0.00 68 1054.9
20260506084444 12 112 14.5 0.0 0.00 0.00 0.00 68 1054.9
20260506084317 12 67 9.7 0.0 0.00 0.00 0.00 69 1054.8
20260506084203 12 67 9.7 0.0 0.00 0.00 0.00 69 1054.9
20260506084048 12 90 14.5 0.0 0.00 0.00 0.00 69 1054.9
20260506083920 12 45 9.7 0.0 0.00 0.00 0.00 69 1054.9
20260506083815 12 45 19.3 0.0 0.00 0.00 0.00 69 1054.9
20260506083703 12 112 22.5 0.0 0.00 0.00 0.00 68 1055.0
20260506083548 12 67 12.9 0.0 0.00 0.00 0.00 69 1054.9
20260506083419 12 67 11.3 0.0 0.00 0.00 0.00 69 1054.9
20260506083257 12 67 25.7 0.0 0.00 0.00 0.00 70 1054.9
20260506083138 12 45 11.3 0.0 0.00 0.00 0.00 70 1055.0
20260506083031 12 90 0.0 0.0 0.00 0.00 0.00 71 1055.0
20260506082910 12 90 6.4 0.0 0.00 0.00 0.00 70 1055.0
20260506082757 12 112 8.0 0.0 0.00 0.00 0.00 70 1055.0
20260506082652 12 67 6.4 0.0 0.00 0.00 0.00 70 1054.9
20260506082539 12 67 17.7 0.0 0.00 0.00 0.00 70 1055.0
20260506082434 12 45 9.7 0.0 0.00 0.00 0.00 69 1054.9
20260506082320 12 67 11.3 0.0 0.00 0.00 0.00 69 1054.9
20260506082200 12 67 0.0 0.0 0.00 0.00 0.00 69 1054.9
20260506082046 12 45 9.7 0.0 0.00 0.00 0.00 69 1054.8
20260506081926 12 90 9.7 0.0 0.00 0.00 0.00 69 1054.8
20260506081820 12 67 19.3 0.0 0.00 0.00 0.00 69 1054.8
20260506081706 12 112 11.3 0.0 0.00 0.00 0.00 69 1054.8
20260506081545 12 90 24.1 0.0 0.00 0.00 0.00 69 1054.8
20260506081424 12 90 14.5 0.0 0.00 0.00 0.00 68 1054.8
20260506081256 12 45 19.3 0.0 0.00 0.00 0.00 68 1054.8
20260506081153 12 112 14.5 0.0 0.00 0.00 0.00 68 1054.8
20260506081045 12 112 12.9 0.0 0.00 0.00 0.00 68 1054.8
20260506080926 12 67 8.0 0.0 0.00 0.00 0.00 68 1054.8
20260506080812 12 45 12.9 0.0 0.00 0.00 0.00 68 1054.8
20260506080706 12 112 20.9 0.0 0.00 0.00 0.00 68 1054.8
20260506080555 12 90 12.9 0.0 0.00 0.00 0.00 68 1054.8
20260506080449 12 45 9.7 0.0 0.00 0.00 0.00 68 1054.8
20260506080342 12 45 17.7 0.0 0.00 0.00 0.00 68 1054.8
20260506080222 12 67 17.7 0.0 0.00 0.00 0.00 69 1054.9
20260506080110 12 90 11.3 0.0 0.00 0.00 0.00 68 1054.8
20260506073525 11 67 20.9 0.0 0.00 0.00 0.00 71 1054.6
20260506073419 11 67 17.7 0.0 0.00 0.00 0.00 71 1054.6
20260506073315 11 45 25.7 0.0 0.00 0.00 0.00 71 1054.6
20260506073209 11 67 11.3 0.0 0.00 0.00 0.00 71 1054.6
20260506073040 11 90 20.9 0.0 0.00 0.00 0.00 72 1054.5
20260506072927 11 90 29.0 0.0 0.00 0.00 0.00 72 1054.6
20260506072814 11 67 11.3 0.0 0.00 0.00 0.00 72 1054.6
20260506072703 11 45 14.5 0.0 0.00 0.00 0.00 73 1054.5
20260506072555 11 45 11.3 0.0 0.00 0.00 0.00 72 1054.6
20260506072434 11 45 8.0 0.0 0.00 0.00 0.00 72 1054.6
20260506072321 11 67 9.7 0.0 0.00 0.00 0.00 73 1054.5
20260506072208 12 45 12.9 0.0 0.00 0.00 0.00 73 1054.6
20260506072055 12 112 12.9 0.0 0.00 0.00 0.00 72 1054.6
20260506071941 12 45 16.1 0.0 0.00 0.00 0.00 72 1054.6
20260506071812 12 45 14.5 0.0 0.00 0.00 0.00 71 1054.6
20260506071651 12 45 12.9 0.0 0.00 0.00 0.00 72 1054.6
20260506071540 12 90 6.4 0.0 0.00 0.00 0.00 72 1054.6
20260506071434 12 45 8.0 0.0 0.00 0.00 0.00 72 1054.6
20260506071318 12 90 12.9 0.0 0.00 0.00 0.00 72 1054.6
20260506071206 12 90 11.3 0.0 0.00 0.00 0.00 72 1054.6
20260506071044 12 112 9.7 0.0 0.00 0.00 0.00 72 1054.6
20260506070923 12 45 17.7 0.0 0.00 0.00 0.00 72 1054.6
20260506070801 13 90 4.8 0.0 0.00 0.00 0.00 71 1054.6
20260506070640 13 112 20.9 0.0 0.00 0.00 0.00 71 1054.6
20260506070534 13 67 19.3 0.0 0.00 0.00 0.00 72 1054.6
20260506070420 13 45 19.3 0.0 0.00 0.00 0.00 72 1054.6
20260506070307 13 67 16.1 0.0 0.00 0.00 0.00 73 1054.6
20260506070202 12 90 9.7 0.0 0.00 0.00 0.00 72 1054.5
20260506062354 11 90 11.3 0.0 0.00 0.00 0.00 82 1054.4
20260506062242 11 45 11.3 0.0 0.00 0.00 0.00 82 1054.4
20260506062130 11 22 20.9 0.0 0.00 0.00 0.00 83 1054.4
20260506062016 11 90 4.8 0.0 0.00 0.00 0.00 83 1054.4
20260506061854 11 45 6.4 0.0 0.00 0.00 0.00 83 1054.3
20260506061724 11 112 1.6 0.0 0.00 0.00 0.00 84 1054.4
20260506061610 11 45 9.7 0.0 0.00 0.00 0.00 84 1054.4
20260506061504 11 22 11.3 0.0 0.00 0.00 0.00 84 1054.4
20260506061349 11 67 8.0 0.0 0.00 0.00 0.00 84 1054.4
20260506061228 11 22 9.7 0.0 0.00 0.00 0.00 85 1054.4
20260506061059 11 67 12.9 0.0 0.00 0.00 0.00 85 1054.3
20260506060946 11 22 8.0 0.0 0.00 0.00 0.00 85 1054.3
20260506060832 11 45 4.8 0.0 0.00 0.00 0.00 85 1054.3
20260506060714 11 22 9.7 0.0 0.00 0.00 0.00 85 1054.3
20260506060601 11 0 14.5 0.0 0.00 0.00 0.00 85 1054.3
20260506060453 11 45 11.3 0.0 0.00 0.00 0.00 86 1054.3
20260506060333 11 112 11.3 0.0 0.00 0.00 0.00 86 1054.4